Location: G�ppingen
(48.7089°N, 9.6563°E)
Time: 03:21:37
(UTC+02:00)

KKS-1 - Visible Passes

Search period start: 20 October 2019 00:00
Search period end: 29 October 2019 23:00
Orbit: 637 x 650 km, 98.3° (Epoch: 19 October)

Date Brightness Start Highest point End Pass type
(mag) Time Alt. Az. Time Alt. Az. Time Alt. Az.
20 Oct ? 06:15:14 10° E 06:17:26 14° NE 06:19:37 10° NNE visible
21 Oct ? 06:38:20 10° ESE 06:41:41 21° ENE 06:45:01 10° NNE visible
22 Oct ? 07:02:00 10° SE 07:06:00 33° ENE 07:10:01 10° N visible
24 Oct ? 06:16:46 10° E 06:19:01 14° ENE 06:21:16 10° NNE visible
25 Oct ? 06:39:55 10° ESE 06:43:16 21° ENE 06:46:38 10° NNE visible
26 Oct ? 07:03:36 10° SE 07:07:37 34° ENE 07:11:37 10° N visible
28 Oct ? 05:18:20 10° E 05:20:36 14° ENE 05:22:53 10° NNE visible
29 Oct ? 05:41:29 10° ESE 05:44:52 22° ENE 05:48:15 10° NNE visible
